Kos, Greece

1:44 PM EET on February 25, 2018 (GMT +0200)
Ippokratis

Weather History for LGKO - February, 2018

Change the Weather History Date:

Wednesday, February 14, 2018

  Actual Average Record
Temperature  
Mean Temperature 56 °F -  
Max Temperature 61 °F 56 °F 63 °F (2016)
Min Temperature 51 °F 47 °F 28 °F (2004)
Degree Days  
Heating Degree Days 9    
Growing Degree Days 6 (Base 50)    
Moisture  
Dew Point 43 °F    
Average Humidity 61    
Maximum Humidity 88    
Minimum Humidity 44    
Precipitation  
Precipitation 0.01 in - - ()
Sea Level Pressure  
Sea Level Pressure 29.96 in    
Wind  
Wind Speed 11 mph ()    
Max Wind Speed 20 mph    
Max Gust Speed 31 mph    
Visibility 6.3 miles    
Events Rain    
Averages and records for this station are not official NWS values.
T = Trace of Precipitation, MM = Missing Value Source: Averaged Metar Reports

Daily Weather History Graph

Daily Weather History Graph

Search for Another Location

Airport or City:

Trip Planner

Search our weather history database for the weather conditions in past years. The results will help you decide how hot, cold, wet, or windy it might be!

Date:

Astronomy

Feb. 14, 2018 Rise Set
Actual Time 7:01 AM EET 5:50 PM EET
Civil Twilight 6:34 AM EET 6:17 PM EET
Nautical Twilight 6:04 AM EET 6:47 PM EET
Astronomical Twilight 5:34 AM EET 7:17 PM EET
Moon 6:05 AM EET (2/14) 4:36 PM EET (2/14)
Length of Visible Light 11h 42m
Length of Day
10h 49m
Waning Crescent, 2% of the Moon is Illuminated
Feb 14
Waning Crescent
Feb 15
New
Feb 23
First Quarter
Mar 2
Full
Mar 9
Last Quarter

Hourly Weather History & Observations

Time (EET) Temp. Dew Point Humidity Pressure Visibility Wind Dir Wind Speed Gust Speed Precip Events Conditions
12:20 AM 53.6 °F 42.8 °F 67% 29.98 in 6.2 mi SSE 10.4 mph - N/A   Scattered Clouds
12:50 AM 55.4 °F 42.8 °F 63% 29.98 in 6.2 mi SSE 9.2 mph - N/A   Scattered Clouds
1:20 AM 55.4 °F 42.8 °F 63% 29.98 in 6.2 mi SSE 10.4 mph - N/A   Scattered Clouds
1:50 AM 55.4 °F 44.6 °F 67% 29.95 in 6.2 mi SSE 11.5 mph - N/A   Scattered Clouds
2:20 AM 55.4 °F 44.6 °F 67% 29.95 in 6.2 mi SSE 11.5 mph - N/A   Scattered Clouds
3:20 AM 55.4 °F 46.4 °F 72% 29.92 in 6.2 mi South 11.5 mph - N/A   Scattered Clouds
3:50 AM 55.4 °F 46.4 °F 72% 29.92 in 6.2 mi South 11.5 mph - N/A   Scattered Clouds
4:20 AM 55.4 °F 46.4 °F 72% 29.92 in 6.2 mi South 11.5 mph - N/A   Scattered Clouds
4:50 AM 55.4 °F 46.4 °F 72% 29.89 in 6.2 mi South 13.8 mph - N/A   Scattered Clouds
5:00 AM 56 °F 46 °F 60% 29.92 in 6 mi South 13.8 mph - -   Partly Cloudy
5:20 AM 55.4 °F 46.4 °F 72% 29.89 in 6.2 mi South 11.5 mph - N/A   Scattered Clouds
5:50 AM 57.2 °F 46.4 °F 67% 29.89 in 6.2 mi South 13.8 mph - N/A   Scattered Clouds
6:20 AM 57.2 °F 46.4 °F 67% 29.89 in 6.2 mi South 11.5 mph - N/A   Scattered Clouds
6:50 AM 57.2 °F 46.4 °F 67% 29.89 in 6.2 mi South 19.6 mph - N/A   Scattered Clouds
7:20 AM 55.4 °F 46.4 °F 72% 29.92 in 4.3 mi WSW 19.6 mph 31.1 mph N/A Rain Rain
7:50 AM 51.8 °F 48.2 °F 88% 29.92 in 6.2 mi WSW 12.7 mph - N/A   Scattered Clouds
8:00 AM 53 °F 49 °F 81% 29.94 in 6 mi WSW 12.7 mph - - Rain Light Rain
8:20 AM 51.8 °F 44.6 °F 76% 29.92 in 6.2 mi WSW 10.4 mph 23.0 mph N/A   Mostly Cloudy
8:50 AM 51.8 °F 42.8 °F 71% 29.92 in 6.2 mi SSW 15.0 mph - N/A   Scattered Clouds
9:20 AM 53.6 °F 44.6 °F 72% 29.92 in 6.2 mi SSW 13.8 mph - N/A   Scattered Clouds
9:50 AM 55.4 °F 46.4 °F 72% 29.95 in 6.2 mi SW 12.7 mph - N/A   Mostly Cloudy
10:20 AM 57.2 °F 46.4 °F 67% 29.95 in 6.2 mi SW 15.0 mph 26.5 mph N/A   Mostly Cloudy
10:50 AM 59.0 °F 46.4 °F 63% 29.95 in 6.2 mi WSW 16.1 mph 31.1 mph N/A   Mostly Cloudy
11:00 AM 59 °F 47 °F 55% 29.96 in 9 mi WSW 16.1 mph - -   Partly Cloudy
11:20 AM 59.0 °F 44.6 °F 59% 29.95 in 6.2 mi SW 15.0 mph 26.5 mph N/A   Scattered Clouds
11:50 AM 60.8 °F 44.6 °F 55% 29.98 in 6.2 mi WSW 17.3 mph - N/A   Scattered Clouds
12:20 PM 60.8 °F 42.8 °F 52% 29.98 in 6.2 mi SW 18.4 mph 29.9 mph N/A   Scattered Clouds
12:50 PM 60.8 °F 42.8 °F 52% 29.98 in 6.2 mi SW 17.3 mph - N/A   Scattered Clouds
1:20 PM 60.8 °F 42.8 °F 52% 29.95 in 6.2 mi SW 17.3 mph - N/A   Scattered Clouds
1:50 PM 59.0 °F 44.6 °F 59% 29.95 in 6.2 mi SW 16.1 mph - N/A   Scattered Clouds
2:00 PM 59 °F 45 °F 49% 29.96 in 9 mi SW 16.1 mph - -   Partly Cloudy
2:20 PM 59.0 °F 42.8 °F 55% 29.95 in 6.2 mi SW 17.3 mph 31.1 mph N/A   Scattered Clouds
2:50 PM 59.0 °F 41.0 °F 51% 29.95 in 6.2 mi SW 13.8 mph - N/A   Scattered Clouds
3:20 PM 59.0 °F 41.0 °F 51% 29.95 in 6.2 mi WSW 15.0 mph - N/A   Scattered Clouds
3:50 PM 59.0 °F 41.0 °F 51% 29.95 in 6.2 mi WSW 16.1 mph - N/A   Scattered Clouds
4:20 PM 57.2 °F 41.0 °F 55% 29.95 in 6.2 mi WSW 13.8 mph - N/A   Scattered Clouds
4:50 PM 57.2 °F 41.0 °F 55% 29.98 in 6.2 mi WSW 15.0 mph 26.5 mph N/A   Scattered Clouds
5:00 PM 57 °F 41 °F 44% 29.98 in 9 mi WSW 15.0 mph - -   Mostly Cloudy
5:20 PM 57.2 °F 41.0 °F 55% 29.98 in 6.2 mi WSW 11.5 mph - N/A   Scattered Clouds
5:50 PM 55.4 °F 41.0 °F 58% 29.98 in 6.2 mi WSW 10.4 mph - N/A   Scattered Clouds
6:20 PM 55.4 °F 41.0 °F 58% 29.98 in 6.2 mi WSW 10.4 mph - N/A   Scattered Clouds
6:50 PM 55.4 °F 39.2 °F 54% 30.01 in 6.2 mi West 8.1 mph - N/A   Scattered Clouds
7:20 PM 55.4 °F 39.2 °F 54% 30.01 in 6.2 mi WSW 8.1 mph - N/A   Scattered Clouds
7:50 PM 53.6 °F 39.2 °F 58% 30.01 in 6.2 mi West 8.1 mph - N/A   Scattered Clouds
8:00 PM 54 °F 39 °F 45% 30.01 in 6 mi West 8.1 mph - -   Partly Cloudy
8:20 PM 53.6 °F 39.2 °F 58% 30.01 in 6.2 mi WSW 8.1 mph - N/A   Scattered Clouds
8:50 PM 53.6 °F 39.2 °F 58% 30.01 in 6.2 mi WSW 5.8 mph - N/A   Scattered Clouds
9:20 PM 53.6 °F 39.2 °F 58% 30.01 in 6.2 mi SW 3.5 mph - N/A   Scattered Clouds
9:50 PM 51.8 °F 39.2 °F 62% 30.01 in - North - - N/A   Scattered Clouds
10:20 PM 51.8 °F 39.2 °F 62% 30.01 in - North - - N/A   Scattered Clouds
10:50 PM 51.8 °F 39.2 °F 62% 30.01 in - North - - N/A   Scattered Clouds
11:00 PM 52 °F 38 °F 48% 30.02 in 6 mi SW 4.6 mph - -   Partly Cloudy
11:20 PM 51.8 °F 39.2 °F 62% 30.01 in - North - - N/A   Scattered Clouds
11:50 PM 53.6 °F 41.0 °F 62% 30.01 in - North - - N/A   Scattered Clouds